Location: Baia Mare
(47.6567°N, 23.5850°E)
Time: 09:22:13
(UTC+03:00)

ISS - Pass Details

Date: 24 May 2018
Orbit: 402 x 407 km, 51.6° (Epoch: 26 May)

Event Time Altitude Azimuth Distance (km) Brightness Sun altitude
Rises 22:16:25 0° 247° (WSW) 2,313 0.3 -9.8°
Maximum altitude 22:21:46 84° 335° (NNW) 410 -3.8 -10.4°
Drops below altitude 10° 22:25:02 10° 66° (ENE) 1,459 -1.2 -10.8°
Sets 22:27:07 0° 67° (ENE) 2,320 -0.2 -11.0°
